This is the latest recevied weather packets stored in our database for station/object WA6MHA-11. If no packets are shown the sender has not sent any weather packets the latest 10 day(s).
| Time | Temp. | Humidity | Pressure | Rain* | Wind** | Luminosity | Snow |
|---|---|---|---|---|---|---|---|
| 1777756496 | 29.44° C | 30% | 1013.4 hPa | 0 mm | - | - | - |
| 1777756254 | 28.89° C | 30% | 1013.5 hPa | 0 mm | - | - | - |
| 1777755772 | 28.89° C | 30% | 1013.6 hPa | 0 mm | - | - | - |
| 1777755531 | 28.89° C | 30% | 1013.6 hPa | 0 mm | - | - | - |
| 1777755291 | 28.89° C | 31% | 1013.7 hPa | 0 mm | - | - | - |
| 1777755048 | 27.78° C | 31% | 1013.7 hPa | 0 mm | - | - | - |
| 1777754807 | 27.78° C | 31% | 1013.8 hPa | 0 mm | - | - | - |
| 1777754566 | 28.89° C | 31% | 1013.7 hPa | 0 mm | - | - | - |
| 1777754083 | 27.78° C | 32% | 1013.7 hPa | 0 mm | - | - | - |
| 1777753842 | 27.22° C | 32% | 1013.8 hPa | 0 mm | - | - | - |
| 1777753601 | 27.78° C | 32% | 1013.8 hPa | 0 mm | - | - | - |
| 1777753361 | 26.67° C | 33% | 1013.8 hPa | 0 mm | - | - | - |
| 1777753118 | 26.11° C | 33% | 1013.9 hPa | 0 mm | - | - | - |
| 1777752877 | 26.11° C | 33% | 1013.9 hPa | 0 mm | - | - | - |
| 1777752636 | 25° C | 33% | 1014 hPa | 0 mm | - | - | - |
| 1777752394 | 25.56° C | 34% | 1014.1 hPa | 0 mm | - | - | - |
| 1777752152 | 25.56° C | 34% | 1014.1 hPa | 0 mm | - | - | - |
| 1777751911 | 25.56° C | 34% | 1014.2 hPa | 0 mm | - | - | - |
| 1777751430 | 25° C | 35% | 1014.4 hPa | 0 mm | - | - | - |
| 1777751188 | 26.11° C | 35% | 1014.4 hPa | 0 mm | - | - | - |
| 1777750222 | 24.44° C | 36% | 1014.6 hPa | 0 mm | - | - | - |
| 1777749981 | 24.44° C | 36% | 1014.5 hPa | 0 mm | - | - | - |
| 1777749260 | 24.44° C | 37% | 1014.8 hPa | 0 mm | - | - | - |
| 1777749016 | 24.44° C | 35% | 1014.7 hPa | 0 mm | - | - | - |
| 1777748775 | 25° C | 35% | 1014.9 hPa | 0 mm | - | - | - |
* Rain since midnight (hover to see other rain measurements)
** Current wind speed in m/s (hover to see current wind gust speed)